User: anonymous   Login
Location: Okie-Tex Star Party
(36.8978°N, 102.9520°W)
Time: 22:22:30
(UTC-05:00)
Language:

Hamsat - Orbit

View from above orbital plane
View from above orbital plane
View from above satellite
View from above satellite

Ground track
Ground track

The orbit data is extracted from the following two-line orbital elements,

1 28650U 05017B   15107.13262200  .00004202  00000-0  47108-3 0  9995
2 28650 097.5722 102.3795 0022887 231.1515 128.7660 14.87149550538377
Epoch (UTC): 17 April 2015 03:10:58
Eccentricity: 0.0022887
inclination: 97.5722°
perigee height: 591 km
apogee height: 623 km
right ascension of ascending node: 102.3795°
argument of perigee: 231.1515°
revolutions per day: 14.87149550
mean anomaly at epoch: 128.7660°
orbit number at epoch: 53837

The dashed part of the orbit path shows where the satellite is in the earth's shadow,  

DLR